STARLINK-32168, 60335

Orbit data source: Space-Track

STARLINK-32168, 60335 is a payload satellite owned by SpaceX/Seattle (US) in LEO that was launched on Fri, 02 Aug 2024 UTC via an FALCON 9 launch vehicle from the Air Force Eastern Test Range (AFETR). Payloads include a variety of satellites, spacecraft, and rockets equipped with specific instruments for various scientific and technological missions. These include communications satellites like Starlink; space stations such as the ISS; scientific satellites like the Hubble; Earth observation satellites from companies like Planet Labs, Umbra, and HawkEye 360; GPS; miniature CubeSats for education and research; and military/defense satellites.

Loading next visibility...
STARLINK-32168 details
Identifier
60335, 2024-136G
Orbit
LEO
Last TLE update21 hours ago
Origin
Flag of USSpaceX/Seattle (US)
ManufacturerSpaceX/Seattle
MissionOperational spacecraft
Bus & MotorSTARLINK V2M, Unknown motor
Mass730 kg wet, ~700 kg dry
Launch date (UTC)
2024-08-02 (5 months ago)
Launch vehicle
FALCON 9
Launch site
Air Force Eastern Test Range (AFETR)
Object type
Payload
Rocket body
Debris
Shape & HBRUnknown
Radar Cross SectionLarge (>1 m²)

Expand to show TLE details & history

TLE from 21 hours ago
0 STARLINK-32168
1 60335U 24136G   24356.33931268 -.00000630  00000-0 -91299-5 0  9994
2 60335  53.1629 335.1261 0001440  99.1535 260.9629 15.30201690 21786
Epoch: 2024-12-21T08:08Z
Definitive object data (Epoch: 2024-12-21T08:08:36.615Z)
Latitude-0.00001°
Longitude122.58164°
Altitude476.265 km
Speed7.629 km/s
True Right ascension22h 20m 30s
True Declination0° 00' 00"
Sunlit
Object was in daylight at TLE epoch
Visualization TLE readout
Latitude53.31241°
Longitude-152.24928°
Altitude480.822 km
Speed7.632 km/s
Apparent Right ascension15h 48m 41s
Apparent Declination60° 33' 41"
Sunlit
Object is in full shadow
Visualization observer readout
Local Sidereal Time03:59:09
Azimuth1.308° NNE
Elevation10.5°
Doppler factor1
Orbital elements
Apogee altitude476.453 km
Perigee altitude474.479 km
Semi-major axis6,853.603 km
Eccentricity0.000144
Inclination53.1629°
RAAN335.1261°
Arg. of periapsis99.1535°
True anomaly260.9466°
Mean anomaly260.9629°
Eccentric anomaly260.95475°
Mean motion3.82529 °/min
BSTAR-0.0000091299
Orbital period94.11 mins
Loading maneuver chart data...
Loading historical data...
Loading historical data...
Loading historical data...
Loading historical data...
Loading historical data...
Loading historical data...
Loading historical data...

STARLINK-32168 Visibility forecast

Observer location: undefined°, undefined

Span
Click to sort rows by Start time (UTC) header in descending order
Start Az.
Max El. time (UTC)
Max El. Az.
Max El.
End time (UTC)
End Az.
6 mins2024-12-22 08:09:39.093Z315.775° NNW2024-12-22 08:11:39.093Z343.904° N41.599°2024-12-22 08:15:39.093Z124.387° SE
5 mins2024-12-23 01:05:39.093Z219.768° SW2024-12-23 01:07:39.093Z117.73° SE44.004°2024-12-23 01:10:39.093Z53.545° ENE
|